Hourly Data Report for October 13, 2013

All times are specified in Local Standard Time (LST). Add 1 hour to adjust for Daylight Saving Time where and when it is observed.

KITCHENER/WATERLOO
ONTARIO

43°27'39.000" N
80°22'43.000" W
321.60 m
6144239
71368
YKF

Download Data

Hourly Data (October 2013)
Hourly Data Report for October 13, 2013
Temp Definition
°C
Dew Point Temp Definition
°C
Rel Hum Definition
%
Wind Dir Definition
10's deg

Wind Spd Definition
km/h
Visibility Definition
km
Stn Press Definition
kPa
Hmdx Definition


Wind Chill Definition


Weather Definition


TIME
00:00 Legend Double Dagger 13.7 11.4 86 12 8 16.1 98.26     LegendNANA
01:00 Legend Double Dagger 13.5 11.9 90 13 5 16.1 98.28     LegendNANA
02:00 Legend Double Dagger 13.9 12.0 88 15 8 16.1 98.28     LegendNANA
03:00 Legend Double Dagger 16.5 13.1 80 19 17 16.1 98.31     LegendNANA
04:00 Legend Double Dagger 15.3 14.4 94 19 11 6.4 98.35     LegendNANA
05:00 Legend Double Dagger 15.3 14.4 94 19 9 4.8 98.38     LegendNANA
06:00 Legend Double Dagger 14.8 14.2 96 16 5 16.1 98.42     LegendNANA
07:00 Legend Double Dagger 15.2 14.3 94 15 9 16.1 98.44     LegendNANA
08:00 Legend Double Dagger 15.6 14.7 94 18 5 16.1 98.51     LegendNANA
09:00 Legend Double Dagger 16.4 15.3 93 18 11 16.1 98.53     LegendNANA
10:00 Legend Double Dagger 16.8 15.5 92 19 11 16.1 98.55     LegendNANA
11:00 Legend Double Dagger 16.7 15.7 94 20 11 12.9 98.55     LegendNANA
12:00 Legend Double Dagger 16.6 16.0 96   0 3.6 98.55     LegendNANA
13:00 Legend Double Dagger 16.8 16.0 95 29 5 3.6 98.53     LegendNANA
14:00 Legend Double Dagger 16.9 15.8 93 26 5 4.0 98.52     LegendNANA
15:00 Legend Double Dagger 17.0 15.1 88 30 9 14.5 98.54     LegendNANA
16:00 Legend Double Dagger 17.3 13.6 79 31 11 16.1 98.54     LegendNANA
17:00 Legend Double Dagger 16.3 12.7 79 31 11 16.1 98.55     LegendNANA
18:00 Legend Double Dagger 14.5 10.8 78 30 15 16.1 98.62     LegendNANA
19:00 Legend Double Dagger 12.6 9.6 82 30 13 16.1 98.70     LegendNANA
20:00 Legend Double Dagger 10.6 8.5 87 31 11 16.1 98.76     LegendNANA
21:00 Legend Double Dagger 10.4 8.4 87 31 15 16.1 98.79     LegendNANA
22:00 Legend Double Dagger 9.0 7.5 90 33 9 16.1 98.81     LegendNANA
23:00 Legend Double Dagger 6.5 6.1 97 31 8 16.1 98.82     LegendNANA

Notes on Data Quality.

Legend

  • E = Estimated
  • M = Missing
  • NA = Not Available
  • ‡ = Partner data that is not subject to review by the National Climate Archives
Date modified: